EHI
0 0 0 0 0 0 0 0 0 0 0 0 0 0 0 0 0 0 0 0 0 0 0 0 0 0 0 0 0 0 0 0 0 0 0 0 1 1
0 0 0 0 0 0 0 0 0 0 0 0 0 0 0 0 0 0 0 0 0 0 0 0 0 0 0 0 0 0 0 0 0 0 0 0 0 1
0 0 0 0 0 0 0 0 0 0 0 0 0 0 0 0 0 0 0 0 0 0 0 0 0 0 0 0 0 0 0 0 0 0 0 0 0 0
0 0 0 0 0 0 0 0 0 0 0 0 0 0 0 0 0 0 0 0 0 0 0 0 0 0 0 0 0 0 0 0 0 0 0 0 0 0
0 0 0 0 0 0 0 0 0 0 0 0 0 0 0 0 0 0 0 0 0 0 0 0 0 0 0 0 0 0 0 0 0 0 0 0 0 0
0 0 0 0 0 0 0 0 0 0 0 0 0 0 0 0 0 0 0 0 0 0 0 0 0 0 0 0 0 0 0 0 0 0 0 0 0 0
0 0 0 0 0 0 0 0 0 0 0 0 0 0 0 0 0 0 0 0 0 0 0 0 0 0 0 0 0 0 0 0 0 0 0 0 0 0
0 0 0 0 0 0 0 0 0 0 0 0 0 0 0 0 0 0 0 0 0 0 0 0 0 0 0 0 0 0 0 0 0 0 0 0 0 0
0 0 0 0 0 0 0 0 0 0 0 0 0 0 0 0 0 0 0 0 0 0 0 0 0 0 0 0 0 0 0 0 0 0 0 0 0 0
0 0 0 0 0 0 0 0 0 0 0 0 0 0 0 0 0 0 0 0 0 0 0 0 0 0 0 0 0 0 0 0 0 0 0 0 0 0
0 0 0 0 0 0 0 0 0 0 0 0 0 0 0 0 0 0 0 0 0 0 0 0 0 0 0 0 0 0 0 0 0 0 0 0 0 0
0 0 0 0 0 0 0 0 0 0 0 0 0 0 0 0 0 0 0 0 0 0 0 0 0 0 0 0 0 0 0 0 0 0 0 0 0 0
0 0 0 0 0 0 0 0 0 0 0 0 0 0 0 0 0 0 0 0 0 0 0 0 0 0 0 0 0 0 0 0 0 0 0 0 0 0
0 0 0 0 0 0 0 0 0 0 0 0 0 0 0 0 0 0 0 0 0 0 0 0 0 0 0 0 0 0 0 0 0 0 0 0 0 0
0 0 0 0 0 0 0 0 0 0 0 0 0 0 0 0 0 0 0 0 0 0 0 0 0 0 0 0 0 0 0 0 0 0 0 0 0 0
0 0 0 0 0 0 0 0 0 0 0 0 0 0 0 0 0 0 0 0 0 0 0 0 0 0 0 0 0 0 0 0 0 0 0 0 0 0
0 0 0 0 0 0 0 0 0 0 0 0 0 0 0 0 0 0 0 0 0 0 0 0 0 0 0 0 0 0 0 0 0 0 0 0 0 0
0 0 0 0 0 0 0 0 0 0 0 0 0 0 0 0 0 0 0 0 0 0 0 0 0 0 0 0 0 0 0 0 0 0 0 0 0 0
0 0 0 0 0 0 0 0 0 0 0 0 0 0 0 0 0 0 0 0 0 0 0 0 0 0 0 0 0 0 0 0 0 0 0 0 0 0
0 0 0 0 0 0 0 0 0 0 0 0 0 0 0 0 0 0 0 0 0 0 0 0 0 0 0 0 0 0 0 0 0 0 0 0 0 0
0 0 0 0 0 0 0 0 0 0 0 0 0 0 0 0 0 0 0 0 0 0 0 0 0 0 0 0 0 0 0 0 0 0 0 0 0 0
0 0 0 0 0 0 0 0 0 0 0 0 0 0 0 0 0 0 0 0 0 0 0 0 0 0 0 0 0 0 0 0 0 0 0 0 0 0
0 0 0 0 0 0 0 0 0 0 0 0 0 0 0 0 0 0 0 0 0 0 0 0 0 0 0 0 0 0 0 0 0 0 0 0 0 0
Wind_Speed
1 1 1 1 1 1 1 2 2 1 2 2 2 2 1 1 2 2 2 4 5 5 5 5 6 6 6 6 7 7 6 6 7 7 9 9 10 10
1 1 1 1 1 0 0 1 2 2 2 2 2 2 2 2 3 2 2 3 5 5 6 6 6 6 6 6 6 7 6 6 6 6 7 8 8 8
2 1 2 2 1 1 0 0 1 2 2 2 2 1 1 1 1 1 1 2 2 5 6 6 6 6 7 7 6 7 7 6 6 6 7 7 8 7
2 2 3 2 2 1 1 1 1 2 2 2 2 1 2 2 2 2 2 2 2 5 6 7 7 6 7 7 7 7 7 6 6 6 6 7 7 7
3 3 3 2 3 2 2 2 2 1 2 2 2 1 1 1 1 1 1 1 2 3 6 6 7 7 7 7 7 7 7 7 6 6 6 6 7 7
4 4 4 4 5 4 3 3 2 2 1 2 2 2 2 1 1 1 1 1 1 1 2 3 4 6 7 7 8 8 8 8 7 7 7 6 6 7
4 4 5 6 7 6 5 4 4 3 2 2 2 2 2 1 2 2 2 1 2 1 1 1 2 2 3 5 6 8 8 8 8 8 7 7 6 6
5 5 6 6 7 9 10 10 8 6 5 3 3 4 4 3 3 2 2 1 2 2 2 2 2 3 3 3 6 8 8 8 8 8 8 7 7 7
4 5 5 5 6 5 8 9 9 11 11 7 6 6 5 5 4 4 4 4 4 3 2 2 2 3 3 3 7 8 8 8 9 8 8 7 7 7
4 4 4 6 5 5 5 5 6 6 8 7 7 7 7 6 6 6 5 3 2 2 3 3 2 2 2 2 6 8 8 9 9 9 8 7 7 6
5 5 5 5 10 9 5 6 6 7 8 10 10 10 11 10 7 4 3 3 3 3 3 3 2 2 1 2 3 6 7 8 8 8 8 7 7 5
5 5 7 9 12 11 5 6 7 7 5 5 6 8 8 8 11 8 7 5 3 3 4 4 3 3 2 2 2 3 3 5 7 7 7 7 7 4
5 5 6 13 14 13 9 6 10 9 6 5 5 5 4 4 5 6 7 7 6 5 5 5 4 3 3 2 2 2 3 3 3 3 6 7 8 6
5 5 7 14 15 15 10 10 13 10 4 4 4 4 5 5 5 6 7 7 7 7 6 6 4 5 4 4 3 2 3 3 3 3 3 5 5 6
5 10 13 14 13 10 11 13 9 5 4 4 5 6 5 5 4 3 3 4 4 5 5 6 5 5 4 5 4 4 3 3 4 4 4 4 4 4
6 9 13 12 9 9 9 7 4 5 5 5 5 5 3 3 4 4 4 3 3 4 4 5 7 7 5 5 5 4 4 5 4 5 4 3 2 3
6 4 4 5 5 5 5 5 4 4 5 4 4 4 4 4 4 4 4 4 4 5 4 2 2 3 4 5 5 5 4 4 4 5 5 4 3 3
6 4 5 5 6 6 6 5 4 4 5 5 4 4 5 5 4 4 4 5 6 6 5 4 3 2 0 1 3 6 5 4 4 4 4 5 4 3
3 4 5 5 6 6 5 5 5 4 4 5 5 4 4 5 4 4 5 6 6 6 5 5 5 5 6 6 4 4 6 5 5 4 4 4 5 4
3 5 5 6 5 6 5 5 5 5 4 5 4 5 5 5 5 5 5 6 6 6 5 5 7 8 9 7 4 3 5 6 6 6 4 2 2 3
5 5 5 6 6 6 6 6 6 5 5 5 5 5 5 5 5 6 6 8 7 6 8 8 8 8 3 3 3 2 2 4 7 7 7 5 3 2
6 6 6 6 6 6 6 6 6 6 6 6 6 5 5 5 6 6 6 6 6 6 7 5 5 5 4 6 6 5 4 2 3 6 7 9 8 8
6 6 6 6 6 6 6 7 7 6 6 6 6 5 5 6 6 5 6 6 6 6 5 4 4 4 5 5 6 5 6 5 4 4 1 2 6 8
Wind_Direction
315 311 293 287 275 214 173 162 157 199 286 290 300 294 256 214 209 194 199 210 207 204 201 200 198 196 200 202 203 200 198 198 197 195 198 200 200 202
278 300 298 287 293 276 179 171 162 174 229 264 261 271 268 236 206 198 213 214 216 210 204 201 199 198 198 195 194 188 186 190 192 192 191 193 192 195
303 280 278 274 280 284 247 174 173 165 209 273 276 282 266 257 227 225 214 208 219 216 211 208 206 203 198 195 192 191 191 193 194 193 193 195 195 193
271 271 278 275 258 258 244 235 226 198 189 244 281 289 260 241 222 226 227 213 216 221 216 214 211 206 202 199 197 196 194 193 192 192 195 198 197 198
253 246 254 249 249 242 229 234 243 232 195 205 258 273 278 267 229 246 240 256 229 219 216 218 212 205 204 202 199 198 196 194 195 196 197 201 200 200
268 253 248 235 236 231 226 224 221 221 210 208 241 259 263 265 199 229 255 271 258 238 225 208 201 201 205 204 201 199 198 197 197 197 198 200 200 198
304 289 271 257 247 233 221 212 203 205 209 213 230 241 243 221 220 216 222 250 271 237 212 217 192 198 208 211 210 206 202 199 197 196 195 197 200 201
319 312 300 285 281 268 242 221 203 200 206 206 215 222 231 217 208 199 199 204 255 230 179 225 186 208 214 210 209 204 203 198 196 194 194 196 198 199
321 322 321 315 301 302 276 252 234 225 213 200 208 219 219 211 194 200 204 205 224 215 166 221 200 217 222 216 205 202 201 198 194 193 193 194 197 201
316 314 318 319 315 308 298 275 255 247 234 221 218 223 221 212 198 199 200 207 243 229 175 207 203 208 212 213 207 200 199 198 195 191 191 190 190 193
321 325 321 313 323 322 309 289 277 268 255 239 233 234 231 222 204 183 184 187 227 234 194 188 194 186 199 221 217 203 197 195 195 193 191 186 182 178
324 322 327 327 324 326 304 287 277 272 264 255 247 246 239 233 219 207 198 196 203 229 207 181 182 164 198 231 207 199 196 199 198 197 191 185 177 166
325 320 315 325 324 318 308 277 272 276 262 246 243 243 240 233 228 218 206 200 201 222 200 173 179 175 179 191 205 199 187 184 187 201 198 188 178 168
306 302 302 315 318 314 306 294 294 289 260 245 244 241 237 236 234 226 219 218 217 219 202 177 181 180 172 179 199 193 185 186 180 188 188 179 175 172
296 304 309 312 313 307 300 301 299 282 255 244 243 243 238 235 229 224 224 223 232 234 214 196 188 182 183 190 185 176 177 193 189 187 185 183 180 168
307 308 312 311 302 293 298 297 282 271 262 250 251 251 249 236 229 218 220 212 223 249 238 213 200 187 192 193 182 186 183 180 180 185 178 179 179 179
309 310 313 316 315 310 303 294 284 282 275 261 255 260 256 250 245 227 218 214 218 225 229 220 203 191 189 179 185 194 184 181 178 171 164 173 194 192
315 306 302 304 303 299 303 300 291 281 278 267 260 252 251 249 254 240 225 219 223 225 218 200 171 151 139 290 215 189 186 186 177 168 159 166 192 204
299 288 290 290 294 293 290 291 288 285 286 273 262 258 256 253 249 245 237 229 227 225 218 198 187 183 199 222 237 204 187 180 164 167 172 169 184 195
268 272 280 283 284 288 282 280 279 280 277 271 266 260 253 252 250 247 239 233 232 229 221 207 202 200 206 209 201 208 197 180 173 175 170 144 108 96
269 267 270 274 277 280 278 272 270 271 272 270 262 259 254 250 250 249 247 236 234 232 224 220 218 204 183 134 145 198 222 206 181 170 162 149 145 148
266 267 267 269 272 275 277 274 270 269 270 268 261 256 254 248 249 251 249 240 233 232 237 230 192 176 183 193 197 193 187 164 143 143 159 165 164 178
264 264 264 268 269 270 274 274 271 268 264 262 262 255 255 254 247 246 249 243 237 229 229 228 205 197 201 200 192 184 175 170 158 145 157 182 174 168